Location: Central Falls
(41.8900°N, 71.3929°W)
Time: 16:25:29
(UTC+00:00)

Vanguard 1 - Pass Details

Date: 09 December 2023
Orbit: 653 x 3826 km, 34.3° (Epoch: 24 February)

Event Time Altitude Azimuth Distance (km) Brightness Sun altitude
Rises 05:20:28 0° 282° (WNW) 7,721 14.6 -68.9°
Enters shadow 05:25:04 - 275° (W) 7,157 14.3 -68.5°
Reaches altitude 10° 05:27:28 10° 270° (W) 6,887 - -68.3°
Maximum altitude 05:42:36 22° 230° (SW) 5,750 - -66.6°
Drops below altitude 10° 05:56:13 10° 187° (S) 6,055 - -64.8°
Sets 06:01:56 0° 173° (S) 6,603 - -64.0°
